Total_Precipitation_Accumulation
0.27 0.15 0.16 0.13 0.08 0.08 0.08 0.10 0.14 0.16 0.17 0.18 0.19 0.19 0.20 0.18 0.16 0.15 0.15 0.14 0.15 0.20 0.25 0.31 0.34 0.39 0.44 0.43 0.32 0.21 0.17 0.15 0.12 0.11 0.13 0.17 0.20 0.23 0.29 0.26 0.28 0.26 0.21
0.18 0.12 0.14 0.12 0.10 0.10 0.09 0.10 0.12 0.14 0.15 0.15 0.14 0.14 0.15 0.16 0.15 0.16 0.16 0.17 0.21 0.25 0.25 0.26 0.29 0.33 0.34 0.29 0.23 0.16 0.12 0.12 0.14 0.19 0.24 0.32 0.40 0.40 0.46 0.40 0.40 0.40 0.23
0.17 0.13 0.10 0.11 0.11 0.11 0.11 0.11 0.12 0.14 0.17 0.18 0.17 0.15 0.13 0.12 0.12 0.13 0.14 0.18 0.25 0.30 0.28 0.25 0.24 0.25 0.25 0.20 0.15 0.12 0.12 0.16 0.22 0.33 0.55 0.66 0.65 0.63 0.60 0.53 0.48 0.36 0.22
0.17 0.17 0.11 0.10 0.12 0.13 0.14 0.16 0.17 0.18 0.19 0.22 0.22 0.20 0.17 0.13 0.13 0.15 0.15 0.18 0.24 0.28 0.25 0.21 0.19 0.17 0.15 0.12 0.10 0.11 0.15 0.24 0.34 0.51 0.87 0.82 0.73 0.71 0.60 0.54 0.53 0.47 0.37
0.20 0.17 0.12 0.10 0.12 0.16 0.19 0.21 0.24 0.24 0.26 0.28 0.30 0.30 0.24 0.17 0.15 0.18 0.20 0.21 0.23 0.27 0.28 0.24 0.17 0.13 0.10 0.10 0.11 0.12 0.16 0.26 0.45 0.76 1.14 1.26 1.19 1.00 0.70 0.57 0.55 0.55 0.52
0.26 0.26 0.20 0.19 0.18 0.21 0.21 0.23 0.28 0.30 0.33 0.37 0.40 0.37 0.29 0.22 0.20 0.23 0.27 0.28 0.29 0.32 0.36 0.31 0.27 0.19 0.14 0.12 0.13 0.16 0.23 0.39 0.53 0.85 1.20 1.47 1.38 1.20 0.87 0.66 0.53 0.59 0.60
0.38 0.37 0.31 0.26 0.22 0.23 0.22 0.22 0.27 0.31 0.34 0.41 0.45 0.40 0.34 0.27 0.24 0.26 0.32 0.33 0.36 0.38 0.37 0.33 0.29 0.22 0.20 0.20 0.21 0.26 0.38 0.55 0.65 0.93 1.22 1.28 1.31 1.20 1.00 0.86 0.65 0.54 0.54
0.42 0.38 0.31 0.28 0.24 0.29 0.33 0.30 0.30 0.32 0.37 0.44 0.49 0.45 0.37 0.31 0.32 0.37 0.38 0.41 0.44 0.40 0.35 0.33 0.29 0.25 0.27 0.31 0.34 0.39 0.48 0.56 0.55 0.80 1.06 1.19 1.07 1.03 1.09 1.03 0.82 0.64 0.54
0.49 0.46 0.41 0.41 0.38 0.36 0.35 0.33 0.35 0.34 0.37 0.43 0.48 0.52 0.44 0.37 0.44 0.50 0.49 0.50 0.52 0.46 0.40 0.38 0.37 0.32 0.35 0.41 0.40 0.40 0.45 0.50 0.48 0.71 0.94 1.28 1.04 1.11 1.20 1.01 0.84 0.73 0.62
1.00 1.04 0.83 0.77 0.66 0.50 0.39 0.36 0.38 0.38 0.41 0.44 0.45 0.46 0.44 0.44 0.48 0.52 0.49 0.50 0.50 0.44 0.39 0.39 0.40 0.36 0.33 0.32 0.30 0.33 0.38 0.35 0.36 0.58 1.04 1.14 1.13 1.32 1.35 1.13 0.94 0.82 0.76
1.52 1.61 1.28 0.92 0.76 0.75 0.60 0.46 0.48 0.42 0.43 0.44 0.43 0.45 0.51 0.68 0.80 0.80 0.60 0.59 0.55 0.50 0.46 0.45 0.40 0.34 0.29 0.28 0.34 0.40 0.39 0.31 0.50 0.75 1.01 1.18 1.29 1.54 1.56 1.32 1.10 0.97 0.87
1.84 1.76 1.60 1.15 1.19 1.32 1.01 0.82 0.73 0.61 0.59 0.57 0.67 0.64 0.78 1.15 1.25 0.98 0.95 0.79 0.73 0.64 0.58 0.55 0.53 0.45 0.37 0.40 0.51 0.50 0.38 0.41 0.70 0.91 1.09 1.37 1.57 1.72 1.63 1.39 1.21 1.09 1.01
2.02 1.64 1.37 1.27 1.18 1.33 1.31 1.18 1.07 1.02 1.11 1.11 1.12 1.10 1.28 1.39 1.22 1.02 1.18 1.05 0.96 0.85 0.87 0.91 0.74 0.60 0.62 0.71 0.77 0.68 0.61 0.68 0.86 0.96 1.19 1.51 1.67 1.80 1.81 1.58 1.36 1.23 1.19
1.87 1.67 1.56 1.55 1.45 1.47 1.68 1.67 1.58 1.55 1.47 1.35 1.35 1.29 1.52 1.66 1.60 1.60 1.63 1.54 1.59 1.53 1.47 1.31 1.11 0.94 0.85 0.82 0.80 0.83 0.89 0.89 1.01 1.15 1.45 1.60 1.63 1.66 1.73 1.68 1.60 1.49 1.40
2.06 1.83 1.71 1.76 1.76 1.70 1.95 2.09 1.93 1.90 1.73 1.58 1.55 1.57 1.68 1.75 1.82 1.97 1.95 2.04 1.97 1.85 1.65 1.49 1.27 1.24 1.14 1.03 0.96 0.92 1.02 1.16 1.27 1.44 1.51 1.62 1.58 1.55 1.70 1.82 1.82 1.78 1.65
2.35 2.07 1.81 1.81 1.74 1.72 1.86 2.02 2.03 1.96 2.01 1.98 1.89 1.83 1.83 1.95 2.13 2.16 2.18 2.14 2.01 1.84 1.79 1.74 1.59 1.56 1.47 1.38 1.21 1.20 1.21 1.24 1.38 1.51 1.61 1.74 1.50 1.40 1.60 1.84 1.95 1.98 1.97
2.58 2.49 2.20 2.07 2.01 1.99 1.95 1.92 1.90 1.98 2.19 2.15 2.19 2.21 2.03 1.97 2.07 2.16 2.29 2.24 2.12 2.01 1.97 1.87 1.87 1.83 1.70 1.60 1.55 1.51 1.46 1.41 1.38 1.45 1.65 1.82 1.77 1.69 1.71 1.78 1.86 1.93 2.03
3.08 2.95 2.40 2.02 2.16 2.26 2.31 2.27 2.34 2.38 2.50 2.42 2.25 2.34 2.27 2.27 2.20 2.22 2.24 2.14 2.06 2.00 2.14 2.22 2.18 2.13 2.00 1.91 1.87 1.71 1.67 1.64 1.53 1.52 1.59 1.69 1.93 2.02 1.98 1.80 1.74 1.81 1.95
3.67 3.37 2.67 2.35 2.39 2.49 2.57 2.74 2.94 3.03 3.01 2.89 2.71 2.68 2.54 2.60 2.56 2.54 2.59 2.49 2.35 2.38 2.39 2.23 2.28 2.34 2.36 2.24 1.95 1.82 1.69 1.70 1.65 1.57 1.60 1.59 1.76 1.98 2.02 1.92 1.83 1.80 1.92
3.78 3.58 3.05 2.77 2.88 2.82 2.78 2.99 3.15 3.22 3.21 3.25 3.27 3.23 3.03 2.93 2.96 3.04 3.10 3.01 2.80 2.75 2.76 2.77 2.70 2.47 2.30 2.20 1.96 1.93 1.83 1.71 1.66 1.57 1.50 1.53 1.59 1.56 1.68 1.71 1.80 1.78 1.80
3.09 3.07 3.12 3.07 3.10 3.11 3.05 3.10 3.33 3.52 3.56 3.51 3.61 3.65 3.49 3.40 3.43 3.56 3.58 3.53 3.29 3.10 2.96 2.88 2.80 2.60 2.34 2.15 2.14 2.07 1.87 1.69 1.66 1.58 1.50 1.50 1.41 1.36 1.47 1.61 1.58 1.52 1.55
2.88 2.98 3.07 3.01 3.17 3.38 3.67 4.06 4.37 4.60 4.56 4.41 4.33 4.23 4.07 3.94 3.87 3.80 3.79 3.62 3.37 3.23 3.02 2.82 2.75 2.62 2.42 2.27 2.23 2.29 2.04 1.86 1.62 1.46 1.49 1.44 1.35 1.30 1.28 1.28 1.36 1.39 1.38
2.51 2.75 2.89 3.10 3.51 3.90 4.36 5.04 5.49 5.40 5.08 4.92 4.66 4.54 4.30 4.02 3.94 3.93 3.69 3.49 3.28 3.09 2.96 2.77 2.68 2.62 2.43 2.31 2.26 2.36 2.20 2.00 1.78 1.63 1.47 1.36 1.34 1.34 1.30 1.24 1.26 1.36 1.38
2.25 2.62 2.93 3.30 3.82 4.40 4.83 5.27 5.56 5.58 5.37 5.15 4.73 4.37 3.99 3.63 3.43 3.30 3.19 2.99 2.87 2.75 2.62 2.48 2.46 2.42 2.31 2.16 2.10 1.97 1.87 1.78 1.74 1.63 1.50 1.36 1.33 1.34 1.30 1.23 1.23 1.29 1.36
2.08 2.50 2.86 3.20 3.77 4.33 4.84 5.19 5.36 5.46 5.35 5.03 4.41 3.83 3.45 3.13 2.88 2.64 2.45 2.35 2.33 2.25 2.07 1.91 1.88 1.87 1.83 1.79 1.78 1.69 1.61 1.56 1.55 1.50 1.47 1.41 1.33 1.24 1.17 1.15 1.14 1.16 1.21
1.87 2.32 2.63 2.90 3.54 4.20 4.77 5.17 5.38 5.40 5.13 4.55 3.94 3.40 3.08 2.82 2.57 2.35 2.19 2.01 1.90 1.78 1.62 1.46 1.38 1.40 1.46 1.50 1.51 1.49 1.39 1.34 1.34 1.38 1.33 1.28 1.23 1.17 1.11 1.07 1.07 1.07 1.10